Location: Bothwell
(42.3833°S, 147.0000°E)
Time: 09:14:53
(UTC+11:00)

O/OREOS (USA 219) - Pass Details

Date: 28 September 2023
Orbit: 621 x 646 km, 72.0° (Epoch: 22 May)

Event Time Altitude Azimuth Distance (km) Brightness Sun altitude
Exits shadow 02:35:56 22° 158° (SSE) 1,399 ? -34.0°
Drops below altitude 10° 02:37:35 10° 158° (SSE) 2,035 ? -33.8°
Sets 02:39:52 0° 157° (SSE) 2,953 ? -33.5°
